Find Starlink 31636

NORAD ID: 59747 Int'l Des: 2024-090 Owner: SPXS Country: US Constellation: starlink operational
LEOCIRCULAR

实时位置

正在加载3D地球...

关于 Starlink 31636

正在加载描述...

即将过境

Passes for default location (London). Set your location on the main map for personalized predictions.

高度历史

Loading altitude history...

两行轨道根数

1 59747U 24090T 26125.25880123 .00001875 00000-0 77626-4 0 9995
2 59747 43.0031 223.8536 0000813 276.1940 83.8819 15.27592516112098
Epoch: May 5, 2026 • Age: 7 hours

当前状态

高度 492.1 km
速度 7.62 km/s
星下点 -33.85°S, 21.72°E
发射日期 May 13, 2024
运行时间 1.9 years
类型 internet

技术详情

分类 Payload
质量 730.00 kg
干质量 700.00 kg
总质量 730.00 kg
长度 0.30 m
直径 4.10 m
跨度 29.00 m
形状 Box + pan
制造商 SPXS
平台类型 Starlink V2M
阶段状态 In Orbit
所有者/国家 SPXS/US

Most Searched